User: anonymous   Login
Location: Caltech
(34.1382°N, 118.1253°W)
Time: 16:51:15
(UTC-07:00)
Language:

Cosmos-2242 - Orbit

View from above orbital plane
View from above orbital plane
View from above satellite
View from above satellite

Ground track
Ground track

The orbit data is extracted from the following two-line orbital elements,

1 22626U 93024A   17289.53928603 +.00000303 +00000-0 +30340-4 0  9999
2 22626 082.5190 287.4072 0020656 079.1967 281.1573 14.87717261323899
Epoch (UTC): 16 October 2017 12:56:34
Eccentricity: 0.0020656
inclination: 82.5190°
perigee height: 590 km
apogee height: 619 km
right ascension of ascending node: 287.4072°
argument of perigee: 79.1967°
revolutions per day: 14.87717261
mean anomaly at epoch: 281.1573°
orbit number at epoch: 32389

The dashed part of the orbit path shows where the satellite is in the earth's shadow,  

DLR